Location: B�rgermoos
(47.6500°N, 9.0667°E)
Time: 18:37:31
(UTC+00:00)

Tiros 1 - Pass Details

Date: 05 August 2021
Orbit: 630 x 663 km, 48.4° (Epoch: 20 September)

Event Time Altitude Azimuth Distance (km) Brightness Sun altitude
Rises 21:29:25 0° 286° (WNW) 2,973 11.3 -20.2°
Reaches altitude 10° 21:31:57 10° 277° (W) 2,053 10.2 -20.4°
Maximum altitude 21:36:09 32° 214° (SW) 1,103 8.1 -20.8°
Enters shadow 21:36:17 32° 211° (SSW) 1,104 8.0 -20.8°
Drops below altitude 10° 21:40:18 10° 151° (SSE) 2,025 - -21.1°
Sets 21:42:47 0° 142° (SE) 2,926 - -21.3°
